User: anonymous   Login
Location: Unspecified
(0.0000°N, 0.0000°E)
Time: 20:41:33
(UTC+00:00)
Language:

STARLINK-3751 - Orbit

View from above orbital plane
View from above orbital plane
View from above satellite
View from above satellite

Ground track
Ground track

The orbit is defined by the following mean orbital elements,

1 52289U          26145.61757753 +.00000000 +00000-0 +44725-3 0 00003
2 52289  53.2116 113.7718 0001156  61.0756 299.0351 15.08808345    03
Epoch (UTC): 25 May 2026 14:49:18
Eccentricity: 0.0001156
inclination: 53.2116°
perigee height: 539 km
apogee height: 541 km
right ascension of ascending node: 113.7718°
argument of perigee: 61.0756°
revolutions per day: 15.08808345
mean anomaly at epoch: 299.0351°

The dashed part of the orbit path shows where the satellite is in the earth's shadow,  

DLR